Details for Transavia (Netherlands) at EHRD




Go Back


Latest METAR
Local Time

EHRD 220925Z AUTO 22011KT 190V270 9999 NSC 14/11 Q1018 NOSIG
22/09/2018, 11:50:14

Description
Results
Transavia (Netherlands) Logo
Number of Pilots based at EHRD
0 Pilots Based here
Number of Transavia (Netherlands) Flights Departed from EHRD
1 Flights Departed
Number of Transavia (Netherlands) Flights Arrived at EHRD
2 Flights Arrived
Number of Transavia (Netherlands) Schedules Departing from EHRD
79 Schedules
Number of Transavia (Netherlands) Schedules Arriving at EHRD
78 Schedules
Number of Transavia (Netherlands) Schedules Departing from EHRD availible today
19 Schedules Today
Number of Transavia (Netherlands) Schedules Arriving at EHRD availible today
18 Schedules Today
Average Landing Rate at EHRD
-124 fpm
Transavia (Netherlands) Average Landing Rate at EHRD
-149 fpm
Total Fuel Purchased at EHRD by Transavia (Netherlands)
4,655.22 kgs / 10,262.90 lbs

Pilots Based at EHRD


Pilot ID
Pilot Name
Pilot Rank
No. of Flights
No. of Flying Hours
There are no pilots assigned to this hub!   Will you be the first?
Content